Location: Unspecified
(0.0000°N, 0.0000°E)
Time: 07:52:39
(UTC+00:00)

Cosmos 1674 - Visible Passes

Search period start: 25 April 2019 00:00
Search period end: 05 May 2019 00:00
Orbit: 497 x 518 km, 82.5° (Epoch: 24 April)

Date Brightness Start Highest point End Pass type
(mag) Time Alt. Az. Time Alt. Az. Time Alt. Az.
25 Apr 6.0 03:30:28 11° ENE 03:30:28 11° ENE 03:30:48 10° ENE visible
25 Apr 4.4 05:05:23 15° WNW 05:05:23 15° WNW 05:06:56 10° NW visible
26 Apr 4.6 04:49:02 15° NW 04:49:02 15° NW 04:50:03 10° NNW visible
27 Apr 5.0 04:32:35 12° NNW 04:32:35 12° NNW 04:32:57 10° NNW visible
